NOAA 16 DEB, 41397

Orbit data source: Space-Track

NOAA 16 DEB, 41397 is space debris in SSO originally from a launch on Thu, 21 Sep 2000 UTC launched from the Air Force Western Test Range (AFWTR). Debris objects in space refer to the collection of defunct objects orbiting the Earth. Examples of debris include non-operational satellites, rocket bodies, and fragments generated from explosions, collisions, or faulty payload assembly.

Loading next visibility...
Identifier
41397, 2000-055KA
Orbit
SSO
Country
Flag of USUS
Related business
Manufacturer
Unknown
Mission
Spacecraft
Bus & Motor
Unknown
Mass
Unknown
Launch date (UTC)
2000-09-21 (26 years ago)
Launch vehicle
Unknown
Launch site
Air Force Western Test Range (AFWTR)
Object type
Payload
Rocket body
Debris
Shape & HBR
Unknown shape, 0.1 m
Radar Cross Section
Medium (>0.1 m² and <1 m²)

Expand to show TLE details & history
Last TLE update: 10 hours ago

TLE from 10 hours ago
0 NOAA 16 DEB
1 41397U 00055KA  26193.95701521  .00003720  00000-0  91490-3 0  9993
2 41397  98.9403  19.8051 0030295  33.3293 326.9800 14.52653873539363
Epoch: 2026-07-12T22:58Z
TLE epoch observation values (Epoch: 2026-07-12T22:58:06.114Z)
Latitude
-0.00003°
Longitude
104.4312°
Altitude
701.938 km
Speed
7.515 km/s
True Right ascension
01h 19m 13s
True Declination
0° 00' 00"
Sunlit
Object was in daylight at epoch
Visualization orbit readout
Latitude
Unknown
Longitude
Unknown
Altitude
Unknown
Speed
Unknown
Apparent Right ascension
Unknown
Apparent Declination
Unknown
Sunlit
N/A
Visualization observer readout
Local Sidereal Time
21:51:54
Azimuth
Unknown
Elevation
Unknown
Doppler factor
Unknown
Orbital elements
Apogee altitude
735.606 km
Perigee altitude
692.634 km
Semi-major axis
7,092.257 km
Eccentricity
0.00303
Inclination
98.9403°
RAAN
19.8051°
Arg. of periapsis
33.3293°
True anomaly
326.79022°
Mean anomaly
326.98°
Eccentric anomaly
326.88517°
Mean motion
3.63385 °/min
Orbital period
99.07 mins
BSTAR
0.0009149
Loading maneuver chart data...
Computing Atmospheric mass density...
Loading historical data...
Loading historical data...
Loading historical data...
Loading historical data...
Loading historical data...
Loading historical data...
Loading historical data...

Documentation

Showing up to 5 results
|